Location: Saint-Palais-sur-Mer
(45.6429°N, 1.0859°W)
Time: 18:24:12
(UTC+02:00)

BlueWalker 3 - Pass Details

Date: 20 May 2026
Orbit: 447 x 457 km, 53.2° (Epoch: 5 June)

Event Time Altitude Azimuth Distance (km) Brightness Sun altitude
Rises 03:21:10 0° 291° (WNW) 2,447 5.5 -21.9°
Reaches altitude 10° 03:23:36 10° 307° (NW) 1,575 4.6 -21.8°
Maximum altitude 03:26:30 23° 2° (N) 996 4.2 -21.6°
Drops below altitude 10° 03:29:24 10° 57° (ENE) 1,576 5.2 -21.4°
Sets 03:31:50 0° 72° (ENE) 2,449 6.0 -21.2°
